GEFSCGP_850_meantemp_210.txt.gz
Temperature
12 12 12 13 14 15 15 15 15 16 16 15 15 15 16 16 17 16 17 17 16 16 15 15 14 14 14 14 14 13 13 13 13 13 13 12 12 12 12 12 12 12 12 12
12 12 14 15 15 14 14 14 14 15 16 15 14 14 15 16 16 16 16 16 16 15 15 14 14 14 13 13 13 13 13 13 13 12 12 12 12 12 12 12 12 12 12 11
12 14 15 14 14 13 14 13 14 14 14 14 14 13 15 16 16 16 16 16 16 15 15 14 14 13 13 13 13 13 12 12 12 12 12 12 11 11 11 11 11 11 11 11
13 14 14 14 13 13 13 14 14 14 13 12 13 12 14 15 15 15 15 15 15 15 14 14 13 13 12 12 12 12 12 12 12 12 11 11 11 11 11 11 11 11 11 10
13 13 13 13 14 14 13 14 13 13 12 11 12 11 13 15 14 14 14 15 15 14 14 13 13 12 12 12 12 11 11 11 11 11 11 11 11 11 11 10 10 10 10 10
13 13 13 13 14 14 13 13 12 12 11 10 12 12 13 14 14 14 14 15 15 14 13 13 12 12 12 11 11 11 11 11 11 11 11 11 10 10 10 10 10 10 10 9
12 12 13 13 12 12 12 11 10 10 10 10 13 13 13 15 15 15 14 14 14 13 13 12 12 11 11 11 11 11 10 10 10 10 10 10 10 10 10 9 9 9 9 9
11 12 12 12 12 12 11 11 11 10 11 12 13 12 14 15 14 15 15 14 13 13 12 12 11 11 11 10 10 10 10 10 10 10 10 10 9 9 9 9 9 8 8 8
12 12 13 13 13 12 11 11 12 11 11 10 11 13 13 14 13 13 14 14 13 12 12 11 11 11 10 10 10 10 9 9 9 9 9 9 9 9 9 9 8 8 8 7
12 11 11 12 12 11 12 12 10 10 10 10 12 13 12 12 12 13 12 12 13 12 12 11 11 10 10 10 9 9 9 9 9 9 9 9 9 8 8 8 8 8 7 7
11 10 10 10 10 10 10 11 11 10 10 10 11 12 14 13 13 12 12 12 12 12 11 11 10 10 9 9 9 8 8 8 8 8 8 8 8 8 7 7 7 7 7 6
11 10 9 10 11 11 11 11 10 9 9 10 10 11 14 13 13 12 12 12 12 12 11 10 10 10 9 9 8 8 8 8 8 7 7 7 7 7 7 7 6 6 6 6
10 9 8 9 9 9 10 10 10 10 9 9 9 10 13 12 12 12 12 12 12 11 11 10 9 9 8 8 8 7 7 7 7 7 7 7 6 6 6 6 6 6 5 5
10 8 8 9 9 9 8 9 9 9 8 8 9 10 11 11 11 11 11 11 11 11 10 9 9 8 8 8 7 7 7 7 6 6 6 6 6 6 5 5 5 5 5 5
9 7 8 9 9 9 9 9 9 9 9 8 9 10 11 11 11 11 11 11 10 10 9 9 8 8 7 7 7 6 6 6 6 6 6 5 5 5 5 5 5 5 4 4
7 7 7 8 9 9 9 9 9 9 9 9 10 10 11 11 12 11 11 11 10 10 9 8 8 7 7 6 6 6 6 5 5 5 5 5 5 4 4 4 4 4 4 4
6 6 6 7 8 8 7 8 9 9 9 10 9 10 10 10 10 10 11 10 9 9 8 8 7 7 6 6 5 5 5 5 5 4 4 4 4 4 4 4 4 3 3 3
6 6 6 6 6 5 8 11 10 10 10 10 10 10 10 10 10 10 10 9 9 8 8 7 6 6 5 5 5 5 4 4 4 4 3 3 3 3 3 3 3 3 3 3
6 6 5 5 5 6 9 10 10 9 9 10 9 9 9 10 9 9 9 8 8 7 7 6 6 5 5 4 4 4 4 4 3 3 3 3 2 2 2 2 2 2 2 2
6 6 5 5 5 5 8 9 10 9 7 9 9 8 8 8 6 7 8 7 7 6 6 5 5 4 4 4 4 3 3 3 2 2 2 2 2 1 1 1 1 2 1 1
5 5 5 5 5 6 8 9 9 6 7 8 9 8 8 7 7 7 7 6 6 5 5 4 4 4 3 3 3 3 2 2 2 1 1 1 1 1 1 1 1 1 1 0
5 4 4 5 5 5 8 7 7 7 8 8 8 7 7 7 6 6 6 5 5 4 4 4 3 3 3 2 2 2 2 1 1 1 1 1 0 0 -0 -0 -0 -0 -1 -1
5 5 5 5 6 7 7 7 7 7 7 7 7 6 6 6 5 5 4 4 4 3 3 3 3 2 2 2 1 1 1 1 0 0 -0 -0 -0 -1 -1 -1 -1 -1 -1 -1
5 5 5 5 5 6 6 6 6 6 6 6 6 5 5 5 4 4 4 3 3 3 3 2 2 2 1 1 1 0 0 0 -0 -0 -1 -1 -1 -1 -2 -2 -2 -2 -2 -2
5 5 4 4 5 6 6 6 6 5 5 5 5 4 4 4 3 3 3 2 2 2 2 2 1 1 0 0 -0 -0 -1 -1 -1 -1 -2 -2 -2 -2 -2 -2 -3 -3 -3 -3
4 4 4 4 5 5 5 5 5 5 4 4 4 4 3 3 3 2 2 2 2 1 1 1 0 -0 -0 -1 -1 -1 -1 -1 -2 -2 -2 -2 -3 -3 -3 -3 -3 -3 -4 -4

GEFSCGP_850_meantemp_216.txt.gz
Temperature
10 8 8 9 9 10 11 11 11 11 12 12 11 11 12 12 12 12 13 14 14 14 15 14 15 15 14 14 14 14 14 14 13 13 13 13 12 12 12 12 12 11 11 11
8 8 9 10 10 10 11 10 10 11 12 12 11 11 11 11 11 13 13 13 14 14 14 14 14 14 14 14 14 14 14 13 13 13 13 12 12 12 12 12 11 11 11 11
8 9 10 10 10 10 10 10 10 10 11 11 11 10 11 11 12 13 13 14 14 14 14 14 13 13 14 14 13 13 13 13 13 12 12 12 12 12 11 11 11 11 10 10
8 9 10 10 10 10 10 11 11 11 10 9 10 9 10 10 11 11 12 13 13 14 14 13 13 13 13 13 13 13 13 12 12 12 12 11 11 11 11 11 10 10 10 10
9 10 10 10 10 11 10 11 11 10 9 9 9 9 9 9 10 11 11 12 13 14 13 13 13 13 13 13 13 12 12 12 11 11 11 11 11 11 10 10 10 10 10 10
9 10 10 10 11 11 11 10 10 8 8 8 8 8 9 9 10 11 10 12 13 13 13 13 13 12 12 12 12 12 11 11 11 11 11 10 10 10 10 10 10 10 9 9
9 9 10 10 10 10 10 9 9 8 8 8 8 8 9 10 10 11 11 11 12 13 12 12 12 12 12 12 11 11 11 11 11 10 10 10 10 10 10 10 9 9 9 9
8 8 9 9 10 9 9 9 8 8 8 8 8 8 9 10 10 11 12 12 12 12 12 12 12 12 11 11 11 11 11 10 10 10 10 10 10 9 9 9 9 9 9 8
8 8 9 9 10 9 9 8 9 8 7 8 8 8 9 10 10 10 10 10 10 11 11 11 11 11 11 11 11 10 10 10 10 9 9 9 9 9 9 8 8 8 8 8
8 8 8 9 10 10 9 8 7 8 8 8 8 8 9 10 9 9 8 9 10 10 11 11 11 11 11 10 10 10 10 9 9 9 9 9 8 8 8 8 8 8 8 7
8 7 7 8 8 8 8 8 8 7 7 7 8 8 9 9 9 9 8 9 10 10 11 11 10 10 10 10 10 9 9 9 9 9 8 8 8 8 7 7 7 7 7 7
7 6 6 7 8 8 8 8 7 7 7 6 6 8 10 9 9 9 9 10 10 10 10 10 10 10 10 9 9 9 9 8 8 8 8 7 7 7 7 7 6 6 6 6
7 6 6 6 7 7 7 7 7 7 6 6 6 8 9 8 8 9 9 10 10 10 10 10 9 9 9 9 9 8 8 8 8 7 7 7 7 6 6 6 6 6 5 5
8 6 6 7 7 6 6 7 7 7 6 6 6 8 9 9 8 8 9 9 9 9 9 9 9 9 8 8 8 8 7 7 7 7 6 6 6 6 5 5 5 5 5 5
7 6 5 6 7 7 7 7 7 7 6 6 7 7 8 8 8 8 9 9 9 9 9 9 8 8 8 8 8 7 7 7 6 6 6 6 5 5 5 5 4 4 4 4
5 5 5 5 6 6 6 7 7 7 7 7 7 7 8 8 9 8 8 8 8 8 8 8 8 8 7 7 7 7 6 6 6 6 5 5 5 4 4 4 4 4 3 3
4 4 5 5 5 6 5 6 7 6 7 7 7 8 8 7 7 7 8 8 8 8 8 8 7 7 7 7 6 6 6 6 5 5 5 4 4 4 4 3 3 3 3 3
4 4 4 4 4 4 6 7 7 7 7 7 7 7 7 7 8 8 8 8 8 8 7 7 7 7 6 6 6 5 5 5 4 4 4 3 3 3 3 3 3 2 2 2
4 4 4 3 4 4 6 6 6 6 6 6 7 7 7 7 7 6 7 8 7 7 7 6 6 6 6 5 5 5 4 4 4 3 3 3 2 2 2 2 2 2 2 2
4 4 4 3 4 4 6 6 7 7 5 6 6 6 6 6 5 5 6 6 6 6 6 6 5 5 5 4 4 4 4 3 3 3 2 2 2 2 1 1 1 1 1 1
3 3 3 3 3 4 5 6 7 6 5 5 5 6 5 5 5 6 5 5 5 5 5 5 4 4 4 4 3 3 3 3 2 2 2 1 1 1 1 1 1 0 0 0
3 3 3 3 3 4 4 5 5 5 5 5 5 6 5 5 5 5 5 4 4 4 4 4 4 4 3 3 3 3 2 2 2 1 1 1 1 0 0 0 -0 -0 -0 -0
2 3 3 3 4 4 4 4 5 5 5 5 5 5 5 5 4 4 4 4 3 3 3 3 3 3 3 2 2 2 1 1 1 1 0 0 -0 -0 -0 -1 -1 -1 -1 -1
2 2 2 2 2 3 4 4 5 5 5 5 5 5 5 4 4 3 3 3 3 3 3 2 2 2 2 2 1 1 1 0 0 0 -0 -0 -1 -1 -1 -1 -1 -2 -2 -2
1 1 1 1 2 2 3 4 4 5 4 4 4 4 4 4 3 3 3 2 2 2 2 2 2 2 1 1 1 0 -0 -0 -0 -1 -1 -1 -1 -1 -2 -2 -2 -3 -3 -3
0 1 1 2 2 2 2 4 4 4 4 4 3 3 3 3 3 2 2 2 2 2 2 1 1 1 0 -0 -0 -1 -1 -1 -1 -1 -2 -2 -2 -2 -2 -3 -3 -3 -3 -3

GEFSCGP_850_meantemp_222.txt.gz
Temperature
8 7 7 8 8 9 9 8 9 9 10 10 9 9 10 10 10 10 11 12 13 14 14 14 14 14 14 14 14 14 14 14 14 13 13 13 12 12 12 12 12 11 11 11
7 7 8 8 8 9 9 9 9 9 10 10 9 9 9 9 9 10 11 12 12 13 13 14 14 14 14 14 14 14 14 13 13 13 13 13 12 12 12 11 11 11 11 11
7 8 9 8 8 8 8 8 8 9 9 9 9 9 9 9 10 10 11 12 12 13 13 13 14 14 14 14 14 14 13 13 13 13 12 12 12 12 11 11 11 11 11 10
7 8 8 8 8 8 8 9 9 9 8 8 9 8 9 9 9 9 10 11 12 12 13 13 13 13 13 13 13 13 13 13 13 12 12 12 12 12 11 11 11 10 10 10
7 8 8 8 8 8 8 9 9 8 8 7 7 8 8 8 9 10 9 10 11 12 13 13 13 13 13 13 13 13 13 12 12 12 12 12 11 11 11 11 10 10 10 9
8 8 8 8 9 9 8 8 8 7 7 7 7 7 8 8 9 10 9 10 11 12 12 12 12 12 12 12 12 12 12 12 12 11 11 11 11 11 10 10 10 10 9 9
7 8 8 8 8 8 8 8 7 7 7 7 7 7 8 9 9 9 9 10 11 11 12 12 12 12 12 12 12 12 12 12 11 11 11 11 10 10 10 10 9 9 9 9
7 7 8 8 8 7 8 8 8 8 7 7 7 7 8 8 8 9 10 10 10 11 11 11 12 12 11 11 11 11 11 11 11 11 10 10 10 10 9 9 9 9 8 8
7 7 8 8 8 8 7 7 8 7 6 6 6 6 7 8 8 8 8 9 10 10 11 11 11 11 11 11 11 11 11 10 10 10 10 10 9 9 9 8 8 8 8 7
6 7 7 7 8 8 8 7 6 7 7 7 7 7 8 9 8 8 7 8 9 10 10 10 10 10 10 10 10 10 10 10 10 9 9 9 9 9 8 8 8 7 7 7
6 6 6 7 7 7 7 7 7 6 6 6 7 8 8 8 8 8 7 8 9 10 10 10 10 10 10 10 10 10 10 9 9 9 9 8 8 8 8 7 7 7 7 7
6 5 5 6 7 7 7 7 6 6 6 5 5 7 9 7 7 7 7 8 9 9 9 10 9 9 10 10 9 9 9 9 9 8 8 8 7 7 7 7 7 6 6 6
5 5 5 6 6 6 6 6 6 6 5 4 5 8 8 7 7 7 8 8 9 9 9 9 9 9 9 9 9 9 8 8 8 8 8 7 7 7 6 6 6 6 6 5
6 5 5 6 6 5 5 5 5 6 5 5 5 7 8 8 7 7 7 8 8 8 8 8 9 8 8 8 8 8 8 8 7 7 7 7 6 6 6 6 5 5 5 5
5 4 5 5 6 5 6 6 5 6 6 5 6 6 8 8 7 7 7 7 7 7 8 8 8 8 7 7 7 7 7 7 7 7 6 6 6 5 5 5 5 5 4 4
4 4 4 4 5 5 5 6 6 6 6 6 6 6 7 7 7 6 6 6 6 7 7 7 7 7 7 7 7 7 7 6 6 6 6 5 5 5 5 4 4 4 4 4
3 3 4 4 4 5 5 5 6 5 5 6 6 7 6 6 6 6 6 6 6 7 7 7 7 7 6 6 6 6 6 6 6 5 5 5 5 4 4 4 4 3 3 3
3 3 3 3 4 4 5 5 6 6 5 5 6 6 6 6 6 7 7 7 7 7 7 6 6 6 6 6 6 6 5 5 5 5 4 4 4 4 4 3 3 3 3 2
3 3 3 3 3 4 5 5 5 5 5 5 5 5 5 5 5 5 6 6 6 6 6 6 6 6 5 5 5 5 5 5 4 4 4 3 3 3 3 3 2 2 2 2
3 3 3 3 3 4 5 5 5 5 4 4 4 4 4 4 4 4 6 6 6 6 6 6 5 5 5 4 4 4 4 4 3 3 3 3 3 2 2 2 2 1 1 1
2 2 2 2 3 3 4 4 5 5 4 4 4 4 4 3 4 5 5 5 5 5 5 5 4 4 4 4 4 4 3 3 3 3 2 2 2 2 1 1 1 1 0 0
2 2 2 2 2 3 3 3 4 4 4 4 4 4 4 4 4 4 4 4 4 4 4 4 4 3 3 3 3 3 3 2 2 2 2 1 1 1 1 0 0 -0 -0 -0
1 1 1 2 2 2 3 3 4 4 4 4 4 4 4 3 4 4 3 3 3 3 3 3 3 3 3 2 2 2 2 2 1 1 1 1 0 0 -0 -0 -0 -1 -1 -1
-0 1 1 1 1 2 2 3 3 4 4 4 4 4 4 3 3 3 3 2 2 2 2 2 2 2 2 2 1 1 1 1 1 0 0 -0 -0 -1 -1 -1 -1 -1 -2 -2
-0 -0 0 0 1 1 2 3 3 3 3 3 3 3 3 3 3 2 2 2 2 2 2 2 2 1 1 1 1 0 0 -0 -0 -0 -1 -1 -1 -1 -2 -2 -2 -2 -2 -3
-1 -1 -0 1 1 1 1 2 2 3 3 3 2 2 2 2 2 2 1 1 1 1 1 1 1 1 1 0 -0 -0 -1 -1 -1 -1 -1 -2 -2 -2 -2 -2 -2 -3 -3 -3

GEFSCGP_850_meantemp_228.txt.gz
Temperature
10 11 12 13 13 14 14 14 14 14 13 13 14 15 16 16 15 15 15 15 14 14 13 13 13 13 13 14 14 14 14 14 14 13 13 13 13 12 12 12 12 12 12 11
10 11 13 13 13 12 13 13 14 13 13 13 14 14 16 15 15 15 15 15 14 14 13 13 13 13 13 13 14 14 14 13 13 13 13 13 13 12 12 12 12 11 11 11
11 12 12 11 11 11 12 13 13 13 12 12 13 15 16 15 14 14 13 13 13 13 13 12 12 12 13 13 13 13 13 13 13 13 13 12 12 12 11 11 11 11 11 11
11 11 11 11 11 12 12 12 12 12 12 13 13 14 16 16 15 14 14 13 13 12 12 12 12 12 12 13 13 13 13 13 12 12 12 12 12 11 11 11 11 11 10 10
10 10 10 10 11 12 12 12 12 12 12 12 12 12 16 15 15 15 15 14 13 12 12 12 12 12 12 12 12 12 12 12 12 12 12 12 11 11 11 10 10 10 10 10
10 10 11 11 11 11 11 11 11 11 11 11 13 13 15 16 15 15 15 13 12 12 11 11 11 11 11 12 12 12 12 12 12 12 11 11 11 11 10 10 10 9 9 9
9 9 10 10 10 10 11 10 10 10 10 12 13 12 15 15 14 14 14 13 12 11 11 11 11 11 11 11 12 11 11 11 11 11 11 11 10 10 10 10 9 9 9 9
9 9 10 10 10 10 11 11 12 12 13 13 11 12 15 14 13 13 12 12 11 11 11 10 10 10 10 11 11 11 11 11 11 10 10 10 10 10 10 10 9 9 8 8
9 10 9 9 10 11 10 10 12 12 11 12 13 13 13 13 12 12 12 12 11 11 10 10 10 10 10 10 10 10 10 10 10 10 10 10 10 9 9 9 9 8 8 8
9 8 9 9 9 9 10 11 10 10 10 12 13 13 14 14 13 13 12 12 11 10 10 9 10 10 10 10 10 10 10 10 10 9 9 9 9 9 9 9 8 8 8 7
8 8 8 8 8 9 9 9 10 10 11 12 13 14 14 14 13 13 13 11 11 10 9 9 9 9 9 9 9 9 9 9 9 9 9 9 9 8 8 8 8 7 7 7
7 7 8 8 8 9 10 10 10 10 9 10 12 13 13 12 12 12 12 11 10 9 9 9 9 8 8 8 8 9 9 8 8 8 8 8 8 8 7 7 7 7 7 6
6 6 7 7 7 7 8 9 9 9 10 10 11 13 12 11 11 11 11 10 9 9 8 8 8 8 8 8 8 8 8 8 8 8 8 8 7 7 7 7 7 6 6 6
6 6 7 8 9 8 7 7 8 9 9 10 11 12 12 12 11 11 10 9 9 8 8 7 7 7 7 7 7 7 7 7 7 7 7 7 7 7 6 6 6 6 5 5
6 5 6 7 8 8 7 7 7 8 9 9 11 11 12 12 11 10 9 8 8 7 7 6 6 6 6 6 7 7 7 7 7 7 6 6 6 6 6 6 5 5 5 5
5 5 5 6 7 7 7 7 8 8 8 9 9 10 11 10 10 9 9 8 7 7 6 6 6 6 6 6 6 6 6 6 6 6 6 6 6 5 5 5 5 4 4 4
4 4 5 6 6 6 6 7 8 8 8 8 9 10 10 9 9 8 8 7 7 6 6 5 5 5 5 5 5 5 5 5 5 5 5 5 5 5 4 4 4 4 3 3
4 4 4 5 5 5 8 7 8 8 8 8 8 9 8 8 7 7 7 7 6 6 5 5 5 5 5 5 5 5 5 5 5 4 4 4 4 4 4 4 3 3 3 3
4 4 4 5 5 6 7 6 6 6 7 7 7 8 7 6 6 6 5 5 5 5 5 5 5 5 4 4 4 4 4 4 4 4 3 3 3 3 3 3 3 2 2 2
3 4 4 4 5 6 7 6 5 6 6 6 7 6 6 6 7 7 4 4 4 4 4 4 4 4 4 4 4 4 4 3 3 3 3 3 3 2 2 2 2 2 2 1
3 3 3 4 4 6 5 4 5 6 6 5 5 5 5 5 6 4 4 3 4 4 4 4 4 4 4 4 3 3 3 3 3 3 2 2 2 2 2 1 1 1 1 1
3 3 3 4 4 4 4 4 5 5 4 4 4 4 4 3 3 3 3 3 3 3 3 3 3 3 3 3 3 3 2 2 2 2 2 2 1 1 1 1 0 0 0 -0
3 3 4 4 4 3 3 3 3 3 3 3 3 3 3 2 2 2 2 2 2 2 2 2 2 2 2 2 2 2 2 1 1 1 1 1 1 0 0 -0 -0 -0 -1 -1
2 2 3 3 3 3 2 2 2 2 2 2 2 2 2 2 2 1 1 2 2 2 2 2 2 2 1 1 1 1 1 1 0 0 0 0 -0 -0 -1 -1 -1 -1 -1 -2
2 2 2 2 3 2 2 2 2 2 2 1 1 1 1 1 1 1 1 1 1 1 1 1 1 1 1 0 0 0 -0 -0 -0 -0 -0 -1 -1 -1 -1 -1 -2 -2 -2 -2
1 1 2 3 3 2 2 1 1 1 1 1 0 0 1 1 1 1 0 0 0 0 0 0 0 0 0 -0 -0 -0 -1 -1 -1 -1 -1 -1 -2 -2 -2 -2 -2 -2 -2 -3

GEFSCGP_850_meantemp_234.txt.gz
Temperature
12 11 11 12 13 14 15 15 16 16 16 15 15 15 16 17 17 17 18 18 17 17 16 16 15 15 15 15 15 14 14 14 14 13 13 13 13 13 12 12 12 12 12 12
11 11 13 14 14 14 14 14 15 15 15 15 14 15 16 16 16 17 17 17 17 17 16 15 15 15 14 14 14 14 14 14 13 13 13 13 13 12 12 12 12 12 12 12
11 12 14 14 13 13 14 13 14 15 14 14 14 14 15 16 17 17 17 17 17 16 16 15 15 14 14 14 14 14 14 13 13 13 12 12 12 12 12 12 12 12 12 11
11 13 13 13 13 13 13 14 14 14 13 12 13 12 15 15 15 15 16 16 16 15 15 14 14 14 14 13 13 13 13 13 13 12 12 12 12 12 12 12 12 11 11 11
11 12 12 12 13 14 13 14 14 13 12 12 13 12 13 15 15 15 15 16 15 15 15 14 14 13 13 13 13 13 13 13 12 12 12 12 12 12 11 11 11 11 11 11
11 12 12 12 13 14 13 13 12 12 11 10 12 12 13 15 15 15 15 15 15 15 14 13 13 13 13 13 13 12 12 12 12 12 12 12 11 11 11 11 10 10 10 10
9 11 11 12 11 12 12 10 9 9 9 10 13 13 13 15 16 15 15 15 15 14 14 13 13 12 12 12 12 12 12 12 12 11 11 11 11 11 11 11 10 10 10 10
8 9 10 11 11 10 10 10 10 10 10 11 13 12 14 15 15 15 15 15 14 14 13 13 12 12 12 11 11 11 11 11 11 11 11 11 11 10 10 10 10 9 9 9
9 9 11 11 11 11 10 10 12 11 11 11 12 13 14 14 14 14 14 14 13 13 13 12 12 11 11 11 11 11 11 11 11 11 10 10 10 10 10 9 9 9 9 9
8 8 9 10 11 10 11 11 10 9 9 10 12 13 12 12 13 13 12 12 13 12 12 12 11 11 11 11 11 11 11 10 10 10 10 10 9 9 9 9 9 9 8 8
8 7 8 8 8 9 9 10 10 9 10 10 11 12 14 13 13 12 12 13 12 12 12 11 11 10 10 10 10 10 10 10 9 9 9 9 9 9 9 8 8 8 8 8
8 7 7 8 9 9 9 9 9 9 9 10 10 11 13 12 12 12 12 12 12 12 11 11 10 10 10 10 9 9 9 9 9 9 8 8 8 8 8 8 8 7 7 7
7 6 6 7 7 8 8 9 9 9 9 9 9 10 12 12 12 12 12 12 12 11 11 10 10 9 9 9 9 9 8 8 8 8 8 8 8 8 7 7 7 7 7 7
7 6 6 7 7 7 7 7 8 8 8 8 9 10 11 11 11 11 11 11 11 10 10 9 9 8 8 8 8 8 8 8 8 7 7 7 7 7 7 7 6 6 6 6
5 5 6 6 7 7 7 7 8 8 8 8 9 10 11 11 10 10 10 10 10 9 9 8 8 8 7 7 7 7 7 7 7 7 7 7 6 6 6 6 6 6 5 5
4 4 5 6 7 7 7 7 8 8 8 8 9 9 10 10 10 10 9 9 9 8 8 8 7 7 7 7 6 6 6 6 6 6 6 6 5 5 5 5 5 5 5 4
4 4 4 5 6 6 5 7 7 7 8 8 8 8 9 9 9 8 8 8 8 8 7 7 7 6 6 6 6 6 6 5 5 5 5 5 5 5 4 4 4 4 4 4
3 3 4 4 4 4 6 7 8 8 8 8 8 8 8 8 8 7 7 7 6 6 6 6 6 6 6 5 5 5 5 5 5 5 4 4 4 4 4 4 4 3 3 3
4 4 3 3 4 5 6 6 6 6 6 6 7 7 7 7 7 6 6 6 6 5 5 5 5 5 5 5 5 4 4 4 4 4 4 4 4 4 3 3 3 3 3 3
4 3 3 3 4 4 5 5 6 6 5 5 6 5 5 5 5 4 5 5 4 4 4 4 4 4 4 4 4 4 4 4 3 3 3 3 3 3 3 3 2 2 2 2
2 2 2 2 3 4 4 4 5 4 4 4 5 5 5 4 4 4 3 3 3 3 3 3 4 4 3 3 3 3 3 3 3 3 2 2 2 2 2 2 2 1 1 1
2 2 2 2 2 3 3 4 3 3 4 4 4 4 3 3 3 3 3 3 3 3 3 3 3 3 2 2 2 2 2 2 2 2 2 2 2 1 1 1 1 1 0 0
2 2 2 2 2 3 3 3 3 3 3 3 3 3 3 2 2 2 2 2 2 2 2 2 2 2 2 2 2 2 2 1 1 1 1 1 1 1 1 1 0 0 -0 -1
2 3 2 2 2 3 3 3 2 2 2 2 2 2 2 1 1 1 1 1 1 1 1 1 1 1 1 1 1 1 1 0 1 1 1 0 0 0 -0 -0 -0 -1 -1 -1
2 2 2 1 2 2 2 2 2 2 1 1 1 1 1 1 0 0 -0 -0 0 0 0 0 0 -0 -0 -0 -0 -0 -0 -0 0 0 -0 -0 -1 -1 -1 -1 -1 -1 -2 -2
1 1 1 1 1 1 1 1 1 1 0 0 0 0 0 -0 -0 -0 -1 -1 -1 -1 -1 -1 -1 -1 -1 -1 -1 -1 -1 -1 -1 -1 -1 -1 -1 -1 -2 -2 -2 -2 -2 -2

GEFSCGP_850_meantemp_240.txt.gz
Temperature
9 8 8 9 9 10 10 10 11 11 12 12 11 11 12 13 13 13 13 14 15 15 15 16 16 15 15 15 15 15 15 15 15 14 14 14 14 14 13 13 13 13 13 12
7 7 8 9 10 10 10 10 10 11 12 12 11 11 11 11 12 13 13 14 14 15 15 15 15 15 15 15 15 15 15 15 14 14 14 14 14 13 13 13 12 12 12 12
7 8 9 9 9 9 10 10 10 11 11 12 11 11 11 11 12 13 14 14 14 14 14 14 15 15 14 14 15 15 14 14 14 14 14 13 13 12 12 12 12 12 12 12
7 9 9 9 9 9 9 10 11 11 10 9 10 9 10 11 11 11 12 13 14 14 14 14 14 14 14 14 14 14 14 14 14 13 13 13 13 12 12 12 12 12 11 11
7 8 9 9 9 10 10 11 10 10 10 9 9 9 9 10 10 11 11 12 13 14 14 14 14 14 14 14 14 14 13 13 13 13 13 13 12 12 12 12 12 11 11 11
7 8 9 9 10 10 10 10 9 8 8 8 9 8 9 9 10 11 10 12 13 13 13 14 14 14 13 13 13 13 13 13 13 13 12 12 12 12 12 11 11 11 11 11
7 8 9 9 9 9 9 8 8 8 7 8 8 9 9 10 10 11 11 12 12 13 13 13 13 13 13 13 13 12 12 12 12 12 12 12 12 12 11 11 11 11 11 11
6 6 7 8 8 8 8 8 7 8 7 7 8 8 9 10 10 11 12 12 12 12 12 12 12 13 13 12 12 12 12 12 12 12 12 11 11 11 11 11 11 11 10 10
5 6 7 8 9 8 8 8 8 7 7 7 7 8 9 10 9 9 10 10 11 11 12 12 12 12 12 12 12 12 11 11 11 11 11 11 11 10 10 10 10 10 10 10
6 6 7 8 8 8 8 8 7 7 7 8 8 8 8 9 9 9 8 9 10 10 11 11 11 11 11 11 11 11 11 11 11 11 11 11 10 10 10 10 10 10 10 9
5 5 6 7 7 7 7 7 7 7 6 7 7 8 9 8 8 8 8 9 9 10 10 10 10 11 11 11 11 11 10 10 10 10 10 10 10 10 10 9 9 9 9 9
4 4 5 5 6 7 7 7 6 6 6 6 6 8 9 7 8 8 8 8 9 9 9 9 9 10 10 10 10 10 10 10 10 10 10 10 9 9 9 9 9 8 8 8
4 4 4 5 5 6 6 6 6 6 5 5 6 8 8 7 7 7 7 8 8 8 9 9 9 9 9 9 9 9 9 9 9 9 9 9 9 9 9 8 8 8 8 7
5 3 4 5 5 4 5 5 6 6 5 5 6 7 7 7 6 6 7 7 7 8 8 8 8 8 8 8 8 8 8 8 8 8 8 8 8 8 8 8 7 7 7 7
3 3 3 4 5 5 5 5 5 5 5 5 6 6 7 6 6 6 6 7 7 7 7 7 7 7 7 7 7 8 8 8 8 8 8 7 7 7 7 6 6 6 6 6
2 2 3 3 4 4 4 5 5 5 6 6 6 6 6 6 5 5 6 6 6 6 6 6 6 6 6 7 7 7 7 7 7 7 7 7 6 6 6 6 5 5 5 5
1 2 2 2 3 4 3 4 4 5 5 5 6 5 5 5 5 5 5 5 5 5 5 5 5 6 6 6 6 6 6 6 6 6 6 6 6 5 5 5 5 5 5 4
1 2 1 1 2 2 3 4 4 4 4 4 5 5 5 5 5 5 5 5 5 5 5 5 5 5 5 5 6 6 5 5 5 5 5 5 5 5 4 4 4 4 4 4
2 1 1 1 1 2 3 3 3 3 3 3 3 3 4 4 4 3 4 4 4 4 4 4 5 5 5 5 5 5 5 5 4 4 4 4 4 4 4 3 3 3 3 3
1 1 0 0 1 2 2 3 3 3 3 2 2 2 2 3 3 2 3 3 4 4 4 4 4 4 4 4 4 4 4 4 4 4 3 3 3 3 3 3 3 2 2 2
0 0 -0 -0 0 1 2 2 3 3 2 2 2 2 2 2 2 2 2 3 3 3 3 3 3 3 3 3 3 3 3 3 3 3 3 3 2 2 2 2 2 2 2 1
0 -0 -1 -1 -0 1 1 1 1 1 2 2 2 2 2 2 2 2 2 2 2 2 3 3 3 3 3 2 2 2 2 2 2 2 2 2 2 1 1 1 1 1 1 1
-0 -0 -1 -0 0 0 1 1 1 2 1 1 1 1 1 1 1 1 1 1 1 1 2 2 2 2 2 2 2 2 1 1 1 1 1 1 1 1 1 1 1 0 0 0
-1 -0 -1 -1 -1 -0 0 1 1 1 1 1 1 1 1 0 0 0 0 0 0 0 1 1 1 1 1 1 1 0 0 0 0 0 0 -0 -0 -0 -0 -0 -0 -0 -0 -1
-2 -1 -1 -1 -1 -1 -0 -0 0 0 0 0 0 -0 0 0 -0 -0 -1 -0 -0 -0 -0 -0 -0 -0 -0 -0 -0 -0 -1 -1 -1 -1 -1 -1 -1 -1 -1 -1 -1 -1 -1 -1
-2 -2 -2 -1 -1 -1 -1 -1 -0 -0 -0 -0 -0 -1 -1 -0 -1 -1 -1 -1 -1 -1 -1 -1 -1 -1 -1 -1 -1 -1 -1 -1 -1 -1 -2 -2 -2 -2 -2 -2 -2 -2 -2 -2

GEFSCGP_850_meantemp_246.txt.gz
Temperature
7 7 7 8 8 9 8 8 9 9 10 10 9 10 10 11 10 10 11 12 13 14 14 14 14 14 14 14 15 15 15 14 14 14 14 14 13 13 13 13 13 13 13 12
6 7 7 8 8 9 8 8 8 9 10 10 9 9 10 9 10 11 11 12 13 13 14 14 14 14 14 14 14 14 14 14 14 14 14 14 13 13 13 13 13 12 12 12
6 7 8 8 8 8 8 8 8 8 9 9 9 9 9 9 10 11 11 12 13 13 13 14 14 14 14 14 14 14 14 14 14 14 13 13 13 13 12 12 12 12 12 12
6 7 7 7 7 8 8 8 9 9 8 8 9 8 9 9 9 9 10 11 12 13 13 14 14 14 14 14 14 14 14 14 13 13 13 13 13 13 13 12 12 12 12 11
6 6 7 7 7 8 8 8 8 8 8 7 8 8 8 8 9 9 9 10 12 13 13 13 14 14 14 14 14 13 13 13 13 13 13 13 12 12 12 12 12 12 11 11
6 6 7 7 8 8 8 8 7 7 7 7 7 7 8 7 9 9 9 10 11 12 12 13 13 13 13 13 13 13 13 13 12 12 12 12 12 12 12 12 11 11 11 11
5 6 6 7 7 7 7 7 7 7 7 7 7 7 8 8 8 9 9 10 10 11 12 12 12 12 12 12 12 12 12 12 12 12 12 11 11 11 11 11 11 11 11 11
5 5 6 6 7 6 7 7 7 7 7 6 6 7 7 8 8 9 9 9 10 10 11 11 12 12 12 12 12 12 12 12 12 11 11 11 11 11 11 10 10 10 10 10
4 5 6 6 7 7 6 6 7 6 6 6 6 6 7 8 7 7 7 8 8 9 10 11 11 11 11 11 12 12 11 11 11 11 11 11 10 10 10 10 10 10 10 10
4 4 5 6 7 7 7 6 6 6 6 7 7 6 7 8 7 6 6 6 7 8 9 10 10 10 11 11 11 11 11 11 11 11 10 10 10 10 10 10 9 9 9 9
4 4 4 5 6 6 6 6 6 5 6 6 7 7 7 7 6 6 5 6 7 7 8 9 9 9 10 10 10 10 10 10 10 10 10 10 9 9 9 9 9 9 9 9
3 3 3 4 5 5 6 5 5 6 5 5 5 6 7 5 5 5 5 6 6 7 7 8 8 8 9 9 9 10 9 9 9 9 9 9 9 9 9 9 9 9 8 8
3 3 3 4 4 4 4 4 5 5 4 4 5 6 5 4 4 5 5 5 5 6 6 7 7 7 8 8 8 9 9 9 9 8 8 8 8 8 8 8 8 8 8 8
3 2 3 3 4 3 3 4 4 4 4 4 4 5 5 4 4 4 4 4 5 5 5 6 6 6 7 7 7 8 8 8 8 8 8 8 8 8 8 8 8 7 7 7
2 2 2 3 3 3 3 3 4 4 4 4 4 5 5 4 4 3 4 4 4 4 5 5 5 6 6 6 7 7 7 7 7 7 7 7 7 7 7 7 7 7 6 6
1 1 1 2 3 3 3 3 3 4 4 4 4 4 4 4 4 3 3 3 3 4 4 4 5 5 5 6 6 6 6 6 6 7 7 7 6 6 6 6 6 6 6 5
0 0 1 1 2 3 2 2 3 3 3 3 4 4 3 3 3 2 3 3 3 3 4 4 4 5 5 5 5 5 5 6 6 6 6 6 6 6 5 5 5 5 5 5
0 0 0 1 1 1 3 2 2 2 2 2 3 3 3 3 3 3 3 3 3 3 3 4 4 4 4 5 5 5 5 5 5 5 5 5 5 5 5 4 4 4 4 4
0 0 0 -0 0 1 2 2 1 1 2 1 2 2 2 2 2 2 2 3 3 3 3 3 4 4 4 4 4 4 4 4 4 4 4 4 4 4 4 4 4 3 3 3
-0 -0 -1 -1 0 1 2 1 1 2 2 1 1 1 1 1 1 1 2 2 2 3 3 3 3 3 3 3 3 3 3 3 3 3 4 3 3 3 3 3 3 3 3 3
-1 -1 -1 -1 -1 0 0 0 2 2 1 1 1 1 0 1 1 1 1 2 2 2 2 3 2 3 3 3 3 3 3 3 3 3 3 3 2 2 2 2 2 2 2 2
-1 -2 -2 -2 -1 -0 -0 -0 0 0 1 1 1 1 1 1 1 1 1 1 1 1 2 2 2 2 2 2 2 2 2 2 2 2 2 2 2 2 2 2 1 1 1 1
-2 -2 -2 -2 -1 -1 -1 -0 0 1 0 0 0 0 0 -0 -1 -0 -0 -0 0 1 1 1 1 1 1 1 1 1 1 1 1 1 1 1 1 1 1 1 1 1 0 0
-3 -2 -2 -2 -2 -2 -1 -1 -0 -0 -0 -0 -0 -0 -0 -1 -1 -1 -1 -1 -1 -0 -0 0 0 0 1 0 0 0 0 0 0 0 0 0 0 0 0 -0 -0 -0 -0 -1
-3 -3 -3 -3 -2 -2 -1 -1 -1 -1 -1 -1 -0 -1 -1 -1 -1 -1 -2 -1 -1 -1 -1 -1 -1 -0 -0 -0 -0 -0 -0 -0 -1 -0 -1 -1 -1 -1 -1 -1 -1 -1 -1 -1
-4 -4 -3 -3 -2 -2 -2 -1 -1 -1 -1 -1 -1 -1 -1 -1 -2 -2 -2 -2 -2 -2 -2 -2 -1 -1 -1 -1 -1 -1 -1 -1 -1 -1 -1 -1 -1 -1 -1 -1 -1 -2 -2 -2

GEFSCGP_850_meantemp_252.txt.gz
Temperature
9 9 10 11 11 12 13 12 13 13 13 13 14 15 15 15 14 15 15 15 15 14 14 13 13 13 13 14 14 14 14 14 14 14 14 13 13 13 13 13 13 13 13 13
9 9 10 11 11 11 11 12 12 12 12 13 13 14 15 15 15 15 15 15 15 14 13 13 13 13 13 13 14 14 14 14 14 14 13 13 13 13 13 13 13 13 12 12
9 10 10 10 10 10 11 11 12 12 12 12 12 14 15 15 14 14 14 14 14 13 13 13 13 13 13 13 14 14 14 14 14 13 13 13 13 13 12 12 12 12 12 12
9 9 9 9 10 10 10 11 12 11 11 12 12 13 15 15 14 14 14 14 14 13 13 12 12 13 13 13 13 13 13 13 13 13 13 13 12 12 12 12 12 12 12 12
8 9 9 9 10 10 11 11 11 11 11 11 12 12 15 14 14 15 15 14 13 12 12 12 12 13 13 13 13 13 13 13 13 13 12 12 12 12 12 12 12 12 12 11
8 8 9 9 9 10 10 10 10 10 10 10 12 12 14 14 15 15 15 13 12 12 11 11 11 12 12 12 13 13 13 12 12 12 12 12 12 12 11 11 11 11 11 11
7 8 8 8 8 9 9 9 9 9 9 11 12 12 14 14 14 14 14 13 11 11 10 10 11 11 11 12 12 12 12 12 12 12 12 11 11 11 11 11 11 10 10 10
7 7 8 8 8 8 9 10 10 10 11 12 11 12 14 12 12 11 11 11 10 10 9 9 10 10 11 11 11 11 11 11 11 11 11 11 11 10 10 10 10 10 10 10
7 7 8 8 8 9 8 9 10 10 10 11 11 12 12 11 11 10 10 10 9 9 8 9 9 9 10 11 11 11 11 11 11 11 10 10 10 10 10 10 10 10 9 10
6 6 7 7 8 8 9 9 9 9 10 11 12 11 12 11 10 10 10 9 8 8 8 8 8 9 9 10 10 10 10 10 10 10 10 10 10 9 9 9 9 9 9 9
6 6 6 7 6 7 7 7 8 9 10 11 11 12 11 10 10 9 9 8 7 7 7 7 7 8 8 8 9 9 9 10 10 10 9 9 9 9 9 9 9 9 8 8
5 6 6 6 6 6 7 7 8 8 8 9 11 11 9 9 9 8 8 7 6 6 6 6 6 7 7 7 8 8 9 9 9 9 9 9 9 9 8 8 8 8 8 8
4 5 5 6 6 6 6 6 7 7 8 9 10 10 8 7 7 7 6 6 5 5 5 5 5 6 6 6 7 8 8 9 9 8 8 8 8 8 8 8 8 8 7 7
4 4 5 6 6 5 5 5 6 7 7 8 9 9 8 7 7 6 5 5 5 4 4 4 4 5 5 6 6 7 7 8 8 8 7 7 7 7 7 7 7 7 7 7
3 3 3 4 5 5 5 5 5 6 7 7 8 8 8 7 6 6 5 4 4 3 3 3 3 4 4 5 5 6 6 7 7 7 7 7 7 6 6 6 6 6 6 6
3 3 3 3 4 4 4 4 5 5 6 6 7 7 6 6 5 4 4 3 3 3 3 3 3 3 4 4 5 5 6 6 6 6 6 6 6 6 6 6 5 5 5 5
2 2 3 4 4 4 4 4 4 4 5 5 6 6 5 5 4 4 3 3 3 2 2 2 3 3 3 4 4 5 5 5 5 5 5 5 5 5 5 5 5 5 5 5
1 2 2 3 3 3 4 4 4 4 4 4 5 4 4 4 3 3 2 2 2 2 2 2 2 3 3 3 4 4 4 4 5 5 5 5 5 5 5 5 4 4 4 4
2 2 2 3 3 4 4 3 2 3 3 3 3 3 3 2 3 2 1 1 1 1 1 2 2 3 3 3 3 4 4 4 4 4 4 4 4 4 4 4 4 4 4 3
1 1 2 2 3 3 4 3 2 3 3 3 2 2 2 2 3 3 1 1 1 1 1 2 2 3 3 3 3 3 3 3 3 3 3 3 3 3 3 3 3 3 3 3
0 1 1 2 2 3 2 1 2 3 3 2 1 1 1 2 2 1 0 0 0 1 1 1 2 2 2 2 2 2 2 2 2 2 2 2 2 2 2 2 2 2 2 2
0 1 1 1 2 2 1 1 2 2 1 0 0 0 0 -0 -0 -0 -0 -0 -0 0 1 1 1 1 1 1 1 1 2 1 1 2 2 2 2 2 2 1 1 1 1 1
0 0 1 1 2 1 -0 -0 -0 -1 -0 -0 -0 -1 -1 -1 -1 -1 -1 -1 -1 -0 -0 0 0 0 1 1 1 1 1 1 1 1 1 1 1 1 1 1 1 1 0 0
-0 -1 -0 0 1 -0 -1 -1 -1 -1 -1 -1 -1 -1 -1 -1 -2 -2 -2 -2 -1 -1 -1 -1 -0 -0 -0 0 0 0 0 0 0 0 -0 -0 -0 -0 -0 -0 -0 -0 -0 -0
-1 -1 -1 -0 -0 -1 -1 -2 -2 -2 -2 -2 -2 -2 -2 -2 -2 -2 -2 -2 -2 -2 -2 -2 -1 -1 -1 -1 -1 -1 -1 -1 -1 -1 -1 -1 -1 -1 -1 -1 -1 -1 -1 -1
-2 -1 -1 0 -1 -1 -1 -2 -2 -2 -2 -2 -2 -2 -2 -2 -2 -2 -3 -2 -2 -2 -2 -2 -2 -2 -2 -2 -2 -1 -1 -1 -1 -1 -1 -1 -1 -2 -2 -2 -2 -2 -2 -2